Location: Ward Pound Ridge Reservation
(41.2500°N, 73.6000°W)
Time: 03:57:38
(UTC-04:00)

OTV 5 (USA 277) - Pass Details

Date: 14 October 2017
Orbit: 404 x 417 km, 43.0° (Epoch: 07 September)

Event Time Altitude Azimuth Distance (km) Brightness Sun altitude
Rises 19:33:19 0° 268° (W) 2,352 ? -15.5°
Reaches altitude 10° 19:35:26 10° 271° (W) 1,490 ? -15.9°
Maximum altitude 19:38:47 65° 354° (N) 459 ? -16.6°
Enters shadow 19:39:45 41° 60° (ENE) 615 ? -16.8°
